カタログに戻る

FENGYUN 1C DEB

運用中SSO
NORAD 30148·DEBRIS·🇨🇳 China

打ち上げ May 10, 1999 から Taiyuan Satellite Launch Center

Loading…

次のパス (今後24時間)

TLE

最新Source: Space-Track

元期: Sep 14, 2026, 22:41 UTC

1 30148U 99025TD  26257.94550920  .00000613  00000-0  50760-3 0  9998
2 30148  99.5792  59.2847 0134235 180.6147 331.9345 13.88926853993506

AllMySatでFENGYUN 1C DEBをリアルタイム追跡

Download on the App Store